Airfield :
LOGIN :

Register | Disclaimer

   EN    FR    IT 

 










Legend :    VFR   Marginal VFR   IFR   Intensive IFR   Very Intensive IFR
Visi :
Ceiling :
>= 8 km
>= 3000ft
5 to 8 km
1000 to 3000 ft
1500m to 5 km
500 to 1000 ft
800 to 1500m
200 to 500 ft
< 800m
< 200 ft
Symbols :   Thunderstorms  Fog  Heavy snow  Heavy precipitations  Wind > 20 kt
SIGMETs :     Misc.  Thunderstorms  Icing  Turbulence  Mountain Waves  Volcanic Ashes







- Airport Elevation : 256 ft
- IATA code : KUN


EYKA - Kaunas

CURRENT METAR :
  • 160450Z 16004KT 120V210 CAVOK 08/05 Q1023

EXPIRED METARs :
  • 160420Z 14004KT 110V170 CAVOK 07/04 Q1022
  • 160350Z VRB02KT CAVOK 07/04 Q1023
  • 160320Z VRB02KT CAVOK 07/04 Q1023
  • 160250Z 13003KT 100V160 CAVOK 07/04 Q1023

TAF TAF EYKA
Valid from the 16 at 00:00 until the 17 at 00:00 UTC


152304Z 1600/1624 17008KT 9000 NSC
PROB40
TEMPO 1601/1607 3000 BR SCT005
TEMPO 1621/1624 1500 MIFG BR SCT003
No reported NOTAMs for that airfield.



MET'MAP, your aeronautical weather chart ! - Copyright ORBIFLY December 2007 - Disclaimer

ORBIFLY MET'MAP TEAM :

Programming & Development : Alexandra Zaïnal
Concept & Development : Baudouin d'Aumeries
Co-Development & Prog : Marc-Olivier Méhu
Technical & hardware support : Manuel Goepfert

Contact : metmap@orbifly.com




SOURCES & CREDITS :

   NOAA